Weather History for Goshen, IN

Change the Weather History Date:

Monday, August 27, 2012

  Actual Average Record
Temperature  
Mean Temperature 73 °F -  
Max Temperature 82 °F 81 °F 97 °F (1948)
Min Temperature 64 °F 62 °F 46 °F (1968)
Cooling Degree Days 8    
Growing Degree Days 23 (Base 50)    
Moisture  
Dew Point 67 °F    
Average Humidity 83    
Maximum Humidity 100    
Minimum Humidity 44    
Precipitation  
Precipitation 1.24 in - - ()
Sea Level Pressure  
Sea Level Pressure 30.00 in    
Wind  
Wind Speed 6 mph (NNE)    
Max Wind Speed 14 mph    
Max Gust Speed 22 mph    
Visibility 6 miles    
Events Rain    
Averages and records for this station are not official NWS values.
T = Trace of Precipitation, MM = Missing Value Source: NWS Daily Summary

Daily Weather History Graph

Daily Weather History Graph

Search for Another Location

Airport:

Trip Planner

Search our weather history database for the weather conditions in past years. The results will help you decide how hot, cold, wet, or windy it might be!

Date:

Astronomy

Aug. 27, 2012 Rise Set
Actual Time 7:04 AM EDT 8:23 PM EDT
Civil Twilight 6:35 AM EDT 8:52 PM EDT
Nautical Twilight 6:01 AM EDT 9:26 PM EDT
Astronomical Twilight 5:24 AM EDT 10:02 PM EDT
Moon 5:44 PM EDT (8/27) 2:45 AM EDT (8/27)
Length of Visible Light 14h 16m
Length of Day
13h 18m
Waxing Gibbous, 82% of the Moon is Illuminated
Aug 27
Waxing Gibbous
Aug 31
Full
Sep 8
Last Quarter
Sep 15
New
Sep 22
First Quarter

Hourly Weather History & Observations

Time (EDT) Temp. Heat Index Dew Point Humidity Pressure Visibility Wind Dir Wind Speed Gust Speed Precip Events Conditions
12:53 AM 71.1 °F - 68.0 °F 90% 30.01 in 5.0 mi East 3.5 mph - 0.04 in Rain Light Rain
1:53 AM 72.0 °F - 69.1 °F 91% 30.00 in 5.0 mi North 3.5 mph - 0.01 in Rain Light Rain
2:53 AM 71.1 °F - 68.0 °F 90% 29.98 in 3.0 mi ENE 3.5 mph - 0.04 in Rain Rain
3:27 AM 71.6 °F - 69.8 °F 94% 30.00 in 2.0 mi Calm Calm - 0.07 in Rain Rain
3:53 AM 71.1 °F - 69.1 °F 93% 29.98 in 1.5 mi ESE 3.5 mph - 0.18 in Rain Heavy Rain
4:06 AM 71.6 °F - 69.8 °F 94% 30.00 in 2.0 mi ESE 4.6 mph - 0.06 in Rain Rain
4:08 AM 71.6 °F - 69.8 °F 94% 30.00 in 1.8 mi ESE 4.6 mph - 0.08 in Rain Rain
4:23 AM 69.8 °F - 69.8 °F 100% 30.00 in 1.5 mi Calm Calm - 0.20 in Rain Heavy Rain
4:41 AM 69.8 °F - 68.0 °F 94% 29.99 in 1.5 mi East 6.9 mph - 0.46 in Rain Heavy Rain
4:46 AM 69.8 °F - 68.0 °F 94% 29.99 in 2.0 mi East 5.8 mph - 0.48 in Rain Rain
4:53 AM 70.0 °F - 68.0 °F 93% 29.97 in 2.0 mi East 5.8 mph - 0.52 in Rain Rain
5:06 AM 69.8 °F - 68.0 °F 94% 29.98 in 3.0 mi East 6.9 mph - 0.03 in Rain Light Rain
5:29 AM 69.8 °F - 68.0 °F 94% 29.97 in 4.0 mi East 6.9 mph - 0.06 in Rain Light Rain
5:47 AM 71.6 °F - 68.0 °F 88% 29.97 in 2.5 mi East 6.9 mph - 0.08 in Rain Light Rain
5:53 AM 71.1 °F - 69.1 °F 93% 29.96 in 2.5 mi East 5.8 mph - 0.08 in Rain Light Rain
6:01 AM 71.6 °F - 69.8 °F 94% 29.97 in 3.0 mi East 8.1 mph - 0.01 in Rain Light Rain
6:40 AM 71.6 °F - 68.0 °F 88% 29.96 in 2.5 mi East 5.8 mph - 0.02 in Rain Light Rain
6:53 AM 71.1 °F - 69.1 °F 93% 29.95 in 2.0 mi ENE 8.1 mph - 0.04 in Rain Rain
7:16 AM 71.6 °F - 69.8 °F 94% 29.97 in 1.8 mi NNE 5.8 mph - 0.04 in Rain Rain
7:24 AM 71.6 °F - 69.8 °F 94% 29.97 in 1.2 mi North 9.2 mph - 0.07 in Rain Rain
7:50 AM 69.8 °F - 68.0 °F 94% 29.98 in 1.8 mi NNE 10.4 mph - 0.17 in Rain Heavy Rain
7:53 AM 70.0 °F - 68.0 °F 93% 29.97 in 1.5 mi NNE 10.4 mph - 0.18 in Rain Rain
8:06 AM 69.8 °F - 68.0 °F 94% 29.99 in 1.0 mi NE 10.4 mph - 0.05 in Rain Rain
8:16 AM 69.8 °F - 68.0 °F 94% 29.99 in 1.2 mi NNE 9.2 mph - 0.08 in Rain Rain
8:33 AM 69.8 °F - 68.0 °F 94% 29.99 in 2.5 mi North 9.2 mph - 0.11 in Rain Light Rain
8:49 AM 71.6 °F - 68.0 °F 88% 30.00 in 2.5 mi North 8.1 mph - 0.14 in Rain Light Rain
8:53 AM 71.1 °F - 68.0 °F 90% 29.99 in 3.0 mi North 6.9 mph - 0.14 in Rain Light Rain
9:53 AM 72.0 °F - 69.1 °F 91% 30.01 in 10.0 mi NNW 10.4 mph - 0.00 in   Overcast
10:17 AM 71.6 °F - 68.0 °F 88% 30.03 in 10.0 mi North 9.2 mph - N/A   Overcast
10:48 AM 73.4 °F - 68.0 °F 83% 30.03 in 10.0 mi North 6.9 mph - N/A   Overcast
10:53 AM 73.0 °F - 69.1 °F 87% 30.02 in 10.0 mi North 6.9 mph - N/A   Overcast
11:07 AM 73.4 °F - 69.8 °F 88% 30.03 in 10.0 mi North 6.9 mph - N/A   Overcast
11:53 AM 75.9 °F - 69.1 °F 79% 30.02 in 10.0 mi North 9.2 mph 18.4 mph 0.01 in   Scattered Clouds
12:00 PM 77.0 °F - 69.8 °F 78% 30.03 in 10.0 mi North 10.4 mph - N/A   Mostly Cloudy
12:07 PM 78.8 °F - 69.8 °F 74% 30.03 in 10.0 mi North 9.2 mph - N/A   Scattered Clouds
12:17 PM 78.8 °F - 69.8 °F 74% 30.03 in 10.0 mi North 8.1 mph - N/A   Mostly Cloudy
12:51 PM 78.8 °F - 69.8 °F 74% 30.03 in 10.0 mi North 10.4 mph - N/A   Scattered Clouds
12:53 PM 79.0 °F - 69.1 °F 72% 30.02 in 10.0 mi North 11.5 mph - N/A   Scattered Clouds
1:53 PM 81.0 °F 83.3 °F 66.9 °F 62% 30.01 in 10.0 mi NNW 9.2 mph - N/A   Mostly Cloudy
2:53 PM 82.9 °F 84.6 °F 64.9 °F 54% 30.01 in 10.0 mi North 11.5 mph - N/A   Partly Cloudy
3:53 PM 82.0 °F 84.1 °F 66.0 °F 58% 29.99 in 10.0 mi NW 11.5 mph - N/A   Scattered Clouds
4:53 PM 82.0 °F 82.7 °F 61.0 °F 49% 29.99 in 10.0 mi NNW 10.4 mph 21.9 mph N/A   Partly Cloudy
5:53 PM 81.0 °F 81.3 °F 59.0 °F 47% 30.00 in 10.0 mi NW 13.8 mph - N/A   Clear
6:53 PM 79.0 °F - 55.0 °F 44% 30.00 in 10.0 mi NNW 11.5 mph - N/A   Clear
7:53 PM 75.9 °F - 57.0 °F 52% 30.01 in 10.0 mi NNW 8.1 mph - N/A   Clear
8:53 PM 70.0 °F - 55.9 °F 61% 30.02 in 10.0 mi NW 6.9 mph - N/A   Clear
9:53 PM 66.0 °F - 57.9 °F 75% 30.04 in 10.0 mi Calm Calm - N/A   Clear
10:53 PM 64.0 °F - 59.0 °F 84% 30.05 in 10.0 mi West 3.5 mph - N/A   Clear
11:53 PM 64.0 °F - 59.0 °F 84% 30.06 in 10.0 mi Calm Calm - N/A   Clear